軌道要素
Epoch 2015 Apr. 8.0 TT = JDT 2457120.5
T 2015 Mar. 19.01392 TT MPCW
q 3.0876034 (2000.0) P Q
z -0.0004739 Peri. 209.85650 -0.91499391 +0.27013777
+/-0.0000023 Node 338.13037 +0.20397275 -0.33115325
e 1.0014632 Incl. 53.56539 -0.34811098 -0.90408136
From 122 observations 2014 Nov. 20-2015 July 20, mean residual 0".5.
|